User: anonymous   Login
Location: Sofia
(42.6977°N, 23.3219°E)
Time: 23:31:44
(UTC+02:00)
Language:

NOAA 15 - Orbit

View from above orbital plane
View from above orbital plane
View from above satellite
View from above satellite

Ground track
Ground track

The orbit data is extracted from the following two-line orbital elements,

1 25338U 98030A   24058.48690438  .00000252  00000-0  12267-3 0  9992
2 25338  98.5820  87.8647 0009246 289.9233  70.0951 14.26502321341659
Epoch (UTC): 27 February 2024 11:41:08
Eccentricity: 0.0009246
inclination: 98.5820°
perigee height: 797 km
apogee height: 810 km
right ascension of ascending node: 87.8647°
argument of perigee: 289.9233°
revolutions per day: 14.26502321
mean anomaly at epoch: 70.0951°
orbit number at epoch: 34165

The dashed part of the orbit path shows where the satellite is in the earth's shadow,  

DLR